Simultaneous Nadir Overpasses (SNOs) Predictions

Prediction of SNOs between METOP-A and NPP Satellite Orbit:

Table of predicted SNOs for the next 14.0 days since TLE Epoch: 10/12/2020
Index Date (METOP-A) Time (METOP-A) Lat,Lon (METOP-A) SZA (METOP-A ) Date (NPP) Time (NPP) Lat,Lon (NPP) SZA (NPP ) Distance(km) Time Diff (sec)
1 10/25/2020 17:35:23 76.36, -98.63 88.95 10/25/2020 17:34:15 76.38,-101.25 89.11 68.82 68
2 10/25/2020 18:26:07 -76.26, 68.34 91.13 10/25/2020 18:24:57 -76.27, 66.45 91.01 49.98 70
3 10/25/2020 19:16:51 76.06,-124.97 88.73 10/25/2020 19:15:38 76.06,-125.52 88.77 14.75 73
4 10/25/2020 20:07:35 -75.96, 42.02 91.35 10/25/2020 20:06:20 -75.95, 42.16 91.35 3.91 75
5 10/25/2020 20:58:13 76.00,-150.53 88.70 10/25/2020 20:57:05 75.98,-150.61 88.70 3.11 68
6 10/25/2020 21:48:55 -75.99, 16.77 91.30 10/25/2020 21:47:49 -75.96, 16.76 91.32 2.99 66
7 10/25/2020 22:39:35 75.98,-175.93 88.71 10/25/2020 22:38:35 75.98,-176.00 88.73 1.99 60
8 10/25/2020 23:30:17 -75.97, -8.64 91.30 10/25/2020 23:29:19 -75.97, -8.63 91.29 0.28 58
9 10/26/2020 00:20:57 75.96, 158.67 88.71 10/26/2020 00:20:04 75.94, 158.76 88.70 3.08 53
10 10/26/2020 01:11:39 -75.95, -34.04 91.29 10/26/2020 01:10:49 -75.97, -34.03 91.26 2.51 50
11 10/26/2020 02:02:19 75.94, 133.27 88.72 10/26/2020 02:01:34 75.95, 133.36 88.74 2.73 45
